Location: Finnegan
(51.1333°N, 112.0833°W)
Time: 20:19:37
(UTC+00:00)

Envisat - Pass Details

Date: 03 December 2021
Orbit: 764 x 766 km, 98.2° (Epoch: 26 January)

Event Time Altitude Azimuth Distance (km) Brightness Sun altitude
Rises 11:09:13 0° 27° (NNE) 3,246 6.7 -37.1°
Reaches altitude 10° 11:12:27 10° 49° (NE) 2,314 6.1 -36.6°
Maximum altitude 11:15:34 16° 87° (E) 1,918 5.7 -36.2°
Drops below altitude 10° 11:18:39 10° 125° (SE) 2,302 5.9 -35.7°
Sets 11:21:51 0° 146° (SSE) 3,222 6.5 -35.2°
